• In Hungary
  • List of Countries
  • For 7 days
  • Water Temperature
  • Satellite Maps
  • Weather Map
  • News
  • Weather Widgets
  • user-avatar
    Login

    Hourly Weather Kurow

    Today, 24 November, Friday

    Time Temperature Precipitation Wind Pressure Humidity
    00:00 +2°C° 0 mm 2 mps 715 mmHg 87%
    01:00 +2°C° 0 mm 2 mps 716 mmHg 88%
    02:00 +2°C° 0 mm 2 mps 716 mmHg 89%
    03:00 +2°C° 0 mm 2 mps 715 mmHg 89%
    04:00 +2°C° 0 mm 2 mps 715 mmHg 90%
    05:00 +2°C° 0 mm 2 mps 715 mmHg 89%
    06:00 +2°C° 0 mm 2 mps 715 mmHg 89%
    07:00 +2°C° 0 mm 2 mps 716 mmHg 88%
    08:00 +4°C° 0 mm 2 mps 716 mmHg 85%
    09:00 +5°C° 0 mm 2 mps 716 mmHg 82%
    10:00 +7°C° 0 mm 2 mps 716 mmHg 79%
    11:00 +8°C° 0 mm 2 mps 716 mmHg 77%
    12:00 +8°C° 0 mm 2 mps 716 mmHg 76%
    13:00 +9°C° 0 mm 2 mps 716 mmHg 75%
    14:00 +8°C° 0 mm 2 mps 716 mmHg 79%
    15:00 +7°C° 0 mm 2 mps 716 mmHg 83%
    16:00 +6°C° 0 mm 2 mps 715 mmHg 87%
    17:00 +5°C° 0 mm 2 mps 715 mmHg 88%
    18:00 +5°C° 0 mm 2 mps 716 mmHg 88%
    19:00 +5°C° 0 mm 2 mps 716 mmHg 88%
    20:00 +4°C° 0 mm 2 mps 716 mmHg 88%
    21:00 +4°C° 0 mm 2 mps 716 mmHg 87%
    22:00 +4°C° 0 mm 2 mps 716 mmHg 87%
    23:00 +4°C° 0 mm 2 mps 715 mmHg 86%

    Tomorrow, 25 November, Saturday

    Time Temperature Precipitation Wind Pressure Humidity
    00:00 +4°C° 0 mm 2 mps 715 mmHg 86%
    01:00 +4°C° 0 mm 2 mps 715 mmHg 86%
    02:00 +4°C° 0 mm 2 mps 715 mmHg 86%
    03:00 +4°C° 0 mm 2 mps 714 mmHg 87%
    04:00 +4°C° 0 mm 2 mps 714 mmHg 87%
    05:00 +4°C° 0 mm 2 mps 714 mmHg 87%
    06:00 +3°C° 0 mm 2 mps 713 mmHg 88%
    07:00 +3°C° 0 mm 2 mps 713 mmHg 88%
    08:00 +4°C° 0 mm 2 mps 712 mmHg 84%
    09:00 +5°C° 0 mm 3 mps 712 mmHg 81%
    10:00 +7°C° 0 mm 3 mps 712 mmHg 78%
    11:00 +7°C° 0 mm 3 mps 711 mmHg 76%
    12:00 +7°C° 0 mm 4 mps 710 mmHg 74%
    13:00 +8°C° 0 mm 4 mps 710 mmHg 72%
    14:00 +7°C° 0 mm 4 mps 709 mmHg 75%
    15:00 +8°C° 0 mm 3 mps 709 mmHg 79%
    16:00 +7°C° 0 mm 3 mps 709 mmHg 82%
    17:00 +7°C° 0.1 mm 3 mps 708 mmHg 83%
    18:00 +7°C° 0.1 mm 3 mps 708 mmHg 84%
    19:00 +7°C° 0.1 mm 3 mps 708 mmHg 85%
    20:00 +7°C° 0.1 mm 3 mps 708 mmHg 85%
    21:00 +7°C° 0.1 mm 3 mps 708 mmHg 86%
    22:00 +7°C° 0.1 mm 3 mps 708 mmHg 86%
    23:00 +5°C° 0.1 mm 3 mps 708 mmHg 88%

    Day after tomorrow, 26 November, Sunday

    Time Temperature Precipitation Wind Pressure Humidity
    00:00 +6°C° 0.1 mm 2 mps 709 mmHg 90%
    01:00 +5°C° 0.1 mm 2 mps 709 mmHg 91%
    02:00 +4°C° 0.7 mm 3 mps 709 mmHg 91%
    03:00 +4°C° 0.7 mm 3 mps 709 mmHg 91%
    04:00 +3°C° 0.7 mm 3 mps 709 mmHg 91%
    05:00 +3°C° 0.8 mm 3 mps 710 mmHg 91%
    06:00 +3°C° 0.8 mm 3 mps 710 mmHg 90%
    07:00 +2°C° 0.8 mm 3 mps 711 mmHg 90%
    08:00 +2°C° 0.4 mm 3 mps 712 mmHg 89%
    09:00 +2°C° 0.4 mm 3 mps 712 mmHg 88%
    10:00 +2°C° 0.4 mm 3 mps 713 mmHg 88%
    11:00 +1°C° 0.4 mm 4 mps 713 mmHg 86%
    12:00 +1°C° 0.4 mm 4 mps 714 mmHg 84%
    13:00 +1°C° 0.4 mm 4 mps 714 mmHg 83%
    14:00 +1°C° 0.1 mm 4 mps 714 mmHg 83%
    15:00 +1°C° 0.1 mm 3 mps 715 mmHg 83%
    16:00 +1°C° 0.1 mm 3 mps 715 mmHg 83%
    17:00 +1°C° 0 mm 3 mps 716 mmHg 85%
    18:00 0°C° 0 mm 3 mps 716 mmHg 86%
    19:00 0°C° 0 mm 3 mps 717 mmHg 88%
    20:00 -1°C° 0 mm 2 mps 717 mmHg 89%
    21:00 -1°C° 0 mm 2 mps 717 mmHg 89%
    22:00 -1°C° 0 mm 2 mps 718 mmHg 90%
    23:00 -2°C° 0 mm 2 mps 718 mmHg 90%

    27 November, Monday

    Time Temperature Precipitation Wind Pressure Humidity
    00:00 -2°C° 0 mm 2 mps 718 mmHg 91%
    01:00 -3°C° 0 mm 2 mps 718 mmHg 91%
    02:00 -3°C° 0 mm 2 mps 718 mmHg 91%
    03:00 -1°C° 0 mm 1 mps 718 mmHg 91%
    04:00 -1°C° 0 mm 1 mps 719 mmHg 92%
    05:00 -1°C° 0 mm 1 mps 719 mmHg 92%
    06:00 -1°C° 0 mm 1 mps 719 mmHg 91%
    07:00 -1°C° 0 mm 1 mps 719 mmHg 91%
    08:00 -1°C° 0 mm 1 mps 720 mmHg 87%
    09:00 -2°C° 0 mm 2 mps 720 mmHg 83%
    10:00 -1°C° 0 mm 2 mps 720 mmHg 79%
    11:00 -1°C° 0 mm 2 mps 720 mmHg 76%
    12:00 +1°C° 0 mm 2 mps 720 mmHg 74%
    13:00 +1°C° 0 mm 2 mps 719 mmHg 72%
    14:00 +2°C° 0 mm 1 mps 719 mmHg 76%
    15:00 +1°C° 0 mm 1 mps 719 mmHg 79%
    16:00 0°C° 0 mm 1 mps 719 mmHg 82%
    17:00 0°C° 0 mm 1 mps 719 mmHg 84%
    18:00 -1°C° 0 mm 1 mps 719 mmHg 85%
    19:00 -1°C° 0 mm 1 mps 719 mmHg 86%
    20:00 -2°C° 0 mm 1 mps 719 mmHg 86%
    21:00 -2°C° 0 mm 1 mps 719 mmHg 86%
    22:00 -2°C° 0 mm 1 mps 719 mmHg 86%
    23:00 -2°C° 0 mm 1 mps 719 mmHg 86%

    28 November, Tuesday

    Time Temperature Precipitation Wind Pressure Humidity
    00:00 -2°C° 0 mm 1 mps 718 mmHg 87%
    01:00 -2°C° 0 mm 1 mps 718 mmHg 87%
    02:00 -2°C° 0 mm 1 mps 718 mmHg 87%
    03:00 -2°C° 0 mm 1 mps 718 mmHg 87%
    04:00 -2°C° 0 mm 1 mps 717 mmHg 87%
    05:00 -2°C° 0 mm 1 mps 717 mmHg 87%
    06:00 -3°C° 0 mm 1 mps 717 mmHg 86%
    07:00 -3°C° 0 mm 1 mps 717 mmHg 86%
    08:00 -1°C° 0 mm 1 mps 717 mmHg 81%
    09:00 0°C° 0 mm 1 mps 717 mmHg 75%
    10:00 +1°C° 0 mm 1 mps 717 mmHg 69%
    11:00 +2°C° 0 mm 1 mps 716 mmHg 66%
    12:00 +2°C° 0 mm 1 mps 716 mmHg 62%
    13:00 +3°C° 0 mm 1 mps 715 mmHg 59%
    14:00 +2°C° 0 mm 1 mps 715 mmHg 65%
    15:00 +1°C° 0 mm 1 mps 715 mmHg 70%
    16:00 0°C° 0 mm 1 mps 714 mmHg 76%
    17:00 -1°C° 0 mm 1 mps 714 mmHg 77%
    18:00 -3°C° 0 mm 2 mps 714 mmHg 78%
    19:00 -4°C° 0 mm 2 mps 714 mmHg 79%
    20:00 -4°C° 0 mm 2 mps 713 mmHg 78%
    21:00 -4°C° 0 mm 2 mps 713 mmHg 76%
    22:00 -3°C° 0 mm 2 mps 713 mmHg 75%
    23:00 -3°C° 0 mm 2 mps 712 mmHg 73%

    29 November, Wednesday

    Time Temperature Precipitation Wind Pressure Humidity
    00:00 -3°C° 0 mm 2 mps 712 mmHg 72%
    01:00 -3°C° 0 mm 2 mps 712 mmHg 70%
    02:00 -3°C° 0 mm 2 mps 711 mmHg 69%
    03:00 -4°C° 0 mm 3 mps 711 mmHg 68%
    04:00 -2°C° 0 mm 3 mps 711 mmHg 67%
    05:00 -2°C° 0 mm 3 mps 711 mmHg 66%
    06:00 -2°C° 0 mm 2 mps 711 mmHg 66%
    07:00 -2°C° 0 mm 2 mps 710 mmHg 66%
    08:00 -1°C° 0 mm 2 mps 711 mmHg 65%
    09:00 -1°C° 0 mm 2 mps 711 mmHg 64%
    10:00 +1°C° 0 mm 2 mps 711 mmHg 63%
    11:00 +1°C° 0.1 mm 2 mps 711 mmHg 63%
    12:00 +1°C° 0.1 mm 2 mps 710 mmHg 63%
    13:00 +2°C° 0.1 mm 2 mps 710 mmHg 63%
    14:00 +1°C° 0 mm 2 mps 710 mmHg 65%
    15:00 -1°C° 0 mm 2 mps 710 mmHg 68%
    16:00 -2°C° 0 mm 2 mps 710 mmHg 70%
    17:00 -2°C° 0 mm 2 mps 710 mmHg 72%
    18:00 -3°C° 0 mm 2 mps 710 mmHg 74%
    19:00 -3°C° 0 mm 2 mps 710 mmHg 76%
    20:00 -3°C° 0 mm 2 mps 710 mmHg 77%
    21:00 -3°C° 0 mm 2 mps 709 mmHg 78%
    22:00 -3°C° 0 mm 2 mps 709 mmHg 79%
    23:00 -3°C° 0.1 mm 2 mps 709 mmHg 80%
    Show more